Torna al catalogo

SUPERVIEW NEO-1 01

AttivoScienzaSSO
NORAD 52320·PAYLOAD·🇨🇳 China

Lanciato Apr 29, 2022 da Jiuquan Satellite Launch Center

Loading…

Prossimi Passaggi (prossime 24 ore)

TLE

AggiornatoSource: Space-Track

Epoca: Sep 14, 2026, 12:44 UTC

1 52320U 22043A   26257.53056079  .00003673  00000-0  18826-3 0  9997
2 52320  97.3328 327.4538 0001674  30.2913 329.8418 15.17167083243108

Traccia SUPERVIEW NEO-1 01 in tempo reale con AllMySat

Download on the App Store